Theta_e
348 345 350 352 349 348 348 345 348 344 342 345 341 346 344 343 344 345 348 349 350 351 352 352 351 348 345 344 340 334 334 334 336 338 340 343 344 344
349 347 351 349 350 350 349 349 349 346 343 346 346 347 348 347 347 347 345 345 344 352 348 347 347 349 347 345 345 342 339 338 336 335 337 340 341 344
348 348 348 350 347 349 349 350 348 350 347 346 344 347 348 350 350 351 349 348 351 349 347 345 346 347 346 346 345 345 344 342 341 340 338 339 340 341
349 349 349 351 348 349 348 347 347 348 349 346 348 350 350 350 348 347 352 350 349 347 343 349 343 342 345 346 346 350 352 351 345 342 341 341 342 339
350 350 350 350 350 350 349 348 348 349 349 349 349 349 348 347 347 344 343 342 342 343 344 343 348 351 353 352 352 352 351 350 345 343 342 342 342 343
349 350 350 351 351 349 349 350 349 350 347 345 344 344 345 345 346 350 349 348 346 343 344 345 351 352 351 353 353 352 350 349 345 344 344 343 343 344
348 349 349 349 348 347 348 348 349 350 348 345 346 347 347 348 349 350 350 350 348 348 347 347 349 349 350 348 350 351 351 347 348 347 344 345 345 345
348 347 344 343 348 347 346 347 349 348 347 347 348 348 348 349 349 349 351 350 350 348 348 348 348 351 342 339 340 345 350 351 352 352 351 349 346 346
347 347 347 347 347 346 345 347 347 346 347 348 348 348 348 347 347 345 341 342 345 346 349 349 348 344 338 338 345 344 349 345 342 344 351 352 351 351
347 347 346 343 339 339 340 343 347 345 343 340 335 336 334 333 338 340 341 342 343 344 349 349 340 339 336 337 345 336 340 341 345 347 349 350 348 350
343 339 333 329 328 329 328 330 334 333 327 327 331 333 327 326 328 331 336 340 342 342 331 334 337 337 339 339 338 338 343 343 341 337 336 339 345 348
332 331 330 328 325 325 325 323 320 319 321 325 326 325 323 324 325 324 325 328 336 339 323 328 334 327 338 341 334 339 332 334 338 339 340 341 344 346
325 325 323 320 317 314 313 315 317 322 322 322 321 320 320 320 319 319 319 320 320 324 319 323 320 320 325 327 327 329 322 325 333 331 333 334 333 332
317 318 315 311 315 319 319 319 320 322 320 319 317 315 315 315 315 316 317 319 319 317 314 314 313 314 316 319 320 319 323 325 326 320 319 320 322 324
310 308 310 315 316 318 320 320 320 317 316 314 312 311 310 309 310 311 312 313 313 310 308 307 307 309 313 313 315 318 315 316 311 306 307 311 319 323
306 316 317 317 316 314 314 313 312 311 309 308 308 308 307 306 306 306 305 305 305 304 304 303 303 304 304 306 315 308 307 306 303 305 306 306 305 306
315 315 313 312 311 310 310 309 308 307 307 307 306 305 305 305 304 304 303 303 303 303 303 301 301 301 301 306 307 303 304 302 303 304 304 304 304 305
313 313 312 310 309 308 308 306 306 305 305 305 304 304 303 302 301 300 300 300 300 300 300 300 300 299 299 300 301 303 302 301 302 302 302 302 302 302
313 311 309 309 308 307 306 305 305 304 304 303 302 301 300 299 298 298 298 298 298 298 298 298 298 298 299 299 299 301 299 300 300 300 300 301 300 301
310 309 308 307 307 306 305 304 303 303 302 301 300 299 298 297 297 296 297 297 297 297 297 297 297 297 298 298 298 298 298 298 298 298 298 298 299 300
308 307 307 306 306 305 303 302 302 301 300 299 298 296 296 296 296 296 296 296 296 295 296 295 295 296 296 296 296 296 296 296 297 297 298 298 298 299
306 306 306 305 304 304 302 301 300 300 299 297 295 295 295 295 295 295 295 295 295 295 295 295 295 295 295 295 296 296 296 296 296 296 296 297 298 298
306 305 304 304 303 303 301 300 299 299 298 296 295 295 295 295 295 294 295 295 295 295 295 295 295 295 295 295 295 295 296 296 296 296 296 297 297 297
Wind_Speed
4 3 4 3 5 3 3 5 2 1 2 4 1 4 6 9 10 14 16 19 23 27 27 28 24 16 14 13 13 11 10 10 9 9 9 9 10 8
5 3 3 4 3 2 2 0 4 5 1 3 5 7 10 14 16 18 18 19 20 20 19 14 12 10 14 16 16 16 14 13 12 10 10 10 10 10
8 8 7 5 6 4 2 2 2 2 2 3 9 11 14 11 15 14 10 12 11 10 16 17 16 14 11 16 18 21 21 19 18 15 12 11 11 11
9 9 9 10 9 8 7 7 6 5 4 4 6 7 4 11 14 14 13 10 13 15 16 13 17 16 13 15 18 18 20 20 18 18 16 13 12 12
11 9 9 10 10 7 9 8 4 1 3 3 5 7 6 10 13 13 15 15 14 14 14 18 17 17 16 15 16 17 17 17 15 12 15 15 14 14
9 11 11 10 9 10 10 9 8 7 5 9 10 10 8 8 10 14 18 18 19 13 18 22 19 18 21 18 22 25 21 10 11 13 12 15 15 14
7 7 9 6 10 12 13 11 11 12 11 9 8 10 12 13 12 14 17 19 22 16 25 20 21 21 21 23 21 21 19 14 16 16 14 15 14 15
9 7 5 8 11 8 11 12 12 12 10 7 9 10 11 11 14 16 17 19 10 12 23 23 20 15 23 22 18 18 15 18 15 15 13 12 15 17
8 7 7 6 6 6 5 4 5 5 6 6 9 10 12 12 16 19 20 17 16 20 16 16 15 18 21 21 14 17 16 21 20 18 15 16 16 18
8 8 5 2 2 2 2 0 1 3 4 6 8 10 11 12 11 13 14 13 12 10 8 5 19 22 19 17 9 22 19 18 21 22 17 18 21 19
9 7 6 5 6 5 5 5 3 4 6 7 8 12 14 15 13 11 13 13 6 6 21 15 13 21 14 13 15 19 22 21 23 23 23 24 22 20
7 5 3 3 4 4 5 5 6 8 9 8 7 8 11 14 16 19 17 15 7 5 21 15 15 14 7 4 17 17 23 24 22 20 20 22 23 22
4 3 1 3 3 3 4 4 5 6 7 9 10 11 13 14 16 16 18 18 18 11 20 10 19 17 10 11 16 14 25 26 22 22 22 23 24 26
3 2 2 1 2 1 4 5 5 8 9 10 14 16 17 17 16 14 14 15 17 17 19 23 13 20 17 9 11 24 21 18 20 29 32 31 29 28
1 2 2 6 5 6 7 9 11 9 11 15 16 15 15 14 13 14 13 11 9 17 21 21 21 21 17 17 18 15 22 20 28 35 34 33 30 29
2 8 10 14 15 15 13 14 13 13 14 16 15 14 14 16 20 20 21 22 17 24 23 25 24 24 24 19 13 20 23 16 34 36 33 29 30 29
12 13 13 16 17 16 16 14 13 13 16 16 16 17 18 19 20 20 22 23 20 22 25 27 27 24 21 13 13 23 22 28 32 31 36 35 31 27
9 10 15 18 19 17 17 16 15 15 16 15 16 17 18 19 19 21 22 22 19 20 21 24 26 28 24 9 9 19 22 30 28 28 29 29 35 33
9 18 20 18 17 15 14 15 16 17 13 16 17 18 18 18 20 21 21 21 19 20 22 23 25 24 18 9 14 5 33 29 30 30 26 27 33 38
18 20 19 17 15 13 13 15 15 12 13 14 16 17 17 18 19 21 20 19 18 17 19 21 22 24 19 15 22 29 21 26 28 30 35 35 33 35
19 18 16 14 12 12 12 12 10 11 12 13 14 15 16 16 18 19 19 18 18 19 18 19 22 21 21 20 20 26 31 28 26 31 34 34 33 35
16 15 14 12 11 9 10 9 9 9 10 12 13 13 13 14 16 18 17 17 16 17 17 20 22 22 21 21 23 28 33 38 35 30 27 26 27 21
11 10 10 8 7 6 5 5 6 8 9 10 10 11 11 14 15 14 12 13 14 16 17 20 21 20 21 23 26 29 32 36 38 40 36 30 31 33
Wind_Direction
294 306 49 94 74 53 30 14 67 356 294 337 308 360 353 318 335 323 315 310 311 313 322 328 325 320 322 320 333 333 330 331 317 308 302 291 285 285
305 244 311 336 5 12 1 292 221 227 223 309 325 332 338 326 329 317 315 313 324 336 352 3 347 330 315 315 317 320 316 313 314 308 302 302 290 278
294 286 284 280 291 306 303 118 36 161 178 315 348 332 336 2 17 15 2 339 21 5 356 1 3 2 332 321 322 321 311 303 295 296 300 299 305 285
262 272 287 291 287 302 305 322 337 344 321 305 319 349 48 27 6 7 9 10 335 334 347 356 350 344 335 330 325 330 330 326 300 282 287 296 300 299
265 281 281 286 283 297 297 304 298 332 334 309 301 313 323 338 341 343 345 344 339 344 354 352 5 11 7 3 359 349 333 328 322 291 283 289 297 299
260 260 266 273 270 281 283 283 285 277 295 301 299 309 323 334 341 343 343 347 350 354 353 356 5 17 21 18 17 7 352 329 320 307 302 294 296 300
250 254 268 285 290 295 273 267 271 281 296 305 318 323 333 333 338 334 331 335 340 346 345 356 357 2 6 3 5 6 356 10 1 346 321 314 309 310
226 233 261 287 282 276 282 272 274 270 282 295 306 303 301 307 315 325 333 339 337 347 345 342 353 6 358 356 359 359 0 7 4 358 346 334 321 313
209 225 223 241 292 304 322 275 251 247 267 291 309 319 312 325 324 318 321 323 315 323 330 326 2 345 350 357 14 7 1 358 359 348 347 354 347 346
185 185 187 151 25 27 5 223 295 32 19 5 346 337 335 351 329 305 312 325 340 9 358 304 335 335 343 349 345 359 359 3 6 3 359 357 358 353
135 129 112 98 85 73 59 34 32 19 25 33 59 64 63 49 40 40 36 24 17 5 11 346 346 346 344 353 2 4 359 357 357 357 356 357 353 352
118 102 98 48 26 7 360 357 354 6 18 50 66 60 60 61 55 51 48 40 26 9 1 352 1 6 331 338 2 4 360 4 2 4 359 2 9 5
176 187 271 326 341 343 29 62 59 46 52 76 78 60 54 48 46 44 45 48 52 51 19 23 19 12 350 324 341 342 356 356 358 359 357 357 0 3
205 243 296 75 77 109 105 89 68 94 96 76 58 44 34 30 31 34 43 62 70 63 28 26 17 13 358 328 341 336 353 351 349 350 346 343 341 345
320 334 150 145 121 91 101 109 112 94 71 61 52 46 39 23 17 24 27 42 31 23 18 19 15 7 8 350 331 349 1 352 349 348 349 348 349 349
116 113 118 128 120 108 101 89 81 68 64 65 62 54 37 35 34 28 26 19 17 14 18 18 16 8 356 357 351 359 1 360 349 351 345 338 338 339
128 135 124 118 110 100 89 82 72 66 66 68 63 52 47 42 41 32 29 30 32 13 9 9 7 6 8 354 355 356 356 352 346 344 340 333 332 335
143 129 118 113 107 98 90 82 75 73 76 74 64 55 50 44 37 32 29 29 23 16 9 7 5 5 8 13 353 349 349 339 336 334 332 327 321 325
156 136 127 119 111 101 93 88 85 86 80 68 59 52 47 43 37 34 29 26 17 13 9 10 9 9 359 342 324 345 334 332 332 330 328 323 315 314
138 135 127 120 112 104 101 103 100 86 71 63 54 48 45 41 35 30 25 18 10 4 360 5 6 0 349 329 316 321 335 332 330 322 319 316 308 308
136 129 129 123 116 113 110 105 94 83 69 60 54 46 42 40 37 24 17 15 10 6 356 351 347 342 336 332 324 324 328 330 325 319 318 318 316 316
135 133 132 129 126 119 114 108 98 81 67 60 48 45 43 37 30 21 20 11 5 355 344 340 342 344 344 339 329 326 329 328 325 320 311 303 301 302
145 138 141 140 135 119 112 119 102 84 65 42 36 35 33 36 33 31 15 3 354 345 345 343 346 347 344 337 329 324 324 324 322 321 317 312 303 298